Regional Weather Roundup
Issued by NWS Goodland, KS

Home | Current Version | Previous Version | Graphics & Text | Print | Product List | Glossary On
Versions: 1 2 3 4 5 6 7 8 9 10 11 12 13 14 15 16 17 18 19 20 21 22 23 24 25 26 27 28 29 30 31 32 33 34 35 36 37 38 39 40 41 42 43 44 45 46 47 48 49 50
000
ASUS43 KGLD 201808
RWRGLD

GOODLAND FORECAST AREA HOURLY WEATHER ROUNDUP
NATIONAL WEATHER SERVICE GOODLAND KS
1200 PM MDT MON OCT 20 2014

...OFFICIAL OBSERVATIONS...

CITY           SKY/WX    TMP DP  RH WIND       PRES   REMARKS
GOODLAND KS    SUNNY     73  43  33 S15G23    30.17F
HILL CITY KS   SUNNY     74  46  36 SE7       30.13F
IMPERIAL NEB   SUNNY     71  43  36 S10       30.14F
MCCOOK NEB     SUNNY     70  46  42 S6        30.15S
AKRON CO       SUNNY     73  32  22 S16G22    30.15F
BURLINGTON CO  SUNNY     72  39  30 S13G21    30.18F
LIMON CO       SUNNY     68  35  29 S13       30.21F
$$

...UNOFFICIAL OBSERVATIONS...

CITY           SKY/WX    TMP DP  RH WIND       PRES   REMARKS
COLBY KS       SUNNY     73  48  40 SE8       30.16F
GOVE KS          N/A     71  32  23 MISG        N/A
NORTON KS      SUNNY     75  36  23 SE8       30.11F
TRIBUNE KS     SUNNY     70  55  60 SE7       30.19
TRENTON NEB      N/A     74  32  21 S9          N/A
KIT CARSON CO    N/A     68  46  45 CALM        N/A
YUMA CO          N/A     73  34  24 S12G20      N/A
$$



USA.gov is the U.S. government's official web portal to all federal, state and local government web resources and services.